Flag Weather past 2 weeks in Neumarkt in der Oberpfalz, Bavaria, Germany

Now
36 °F

Passing clouds.


Feels Like: 32 °F
Forecast: 30 / 41 °F
Wind: 5 mph from North

Location: Hohenfels

Current Time: Nov 26, 2014 at 11:28:30 AM

Latest Report: Nov 26, 2014 at 10:58 AM


Visibility: N/A

Pressure: 30.16 "Hg

Humidity: 87%

Dew point: 32 °F

Location of Neumarkt in der OberpfalzLocation

Historic Weather in Neumarkt in der Oberpfalz — Graph

°F

Neumarkt in der Oberpfalz temperature yesterday

Maximum temperature yesterday: 43 °F (at 12:58 AM)
Minimum temperature yesterday: 30 °F (at 11:58 PM)
Average temperature yesterday: 40 °F

Past Weeks' High & Low Weather Summary

 TemperatureHumidityPressure
High57 °F (Nov 11, 2:58 PM)100% (Nov 11, 9:00 AM)30.37 "Hg (Nov 11, 9:00 AM)
Low27 °F (Nov 26, 2:58 AM)67% (Nov 11, 2:58 PM)29.50 "Hg (Nov 16, 1:58 AM)
Average41 °F96%30.00 "Hg
* Reported Nov 11 9:00 AM — Nov 26 9:58 AM, Neumarkt in der Oberpfalz, Weather by CustomWeather, © 2014

Note: Actual official high and low records may vary slightly from our data, if they occured in-between our weather recording intervals... More about our weather records

Advertising

Neumarkt in der Oberpfalz weather history for previous 24 hours

 ConditionsComfort  
Time TempWeatherWind HumidityBarometerVisibility
9:58 AM
Nov 26
32 °FPassing clouds.3 mph100%30.17 "HgN/A
8:58 AM30 °FScattered clouds.1 mph100%30.18 "HgN/A
7:58 AM27 °FPartly sunny.No wind100%30.18 "HgN/A
6:58 AM27 °FOvercast.1 mph100%30.18 "HgN/A
5:58 AM27 °FPassing clouds.No wind100%30.18 "HgN/A
4:58 AM27 °FOvercast.No wind100%30.18 "HgN/A
3:58 AM27 °FPassing clouds.2 mph100%30.19 "HgN/A
2:58 AM27 °FIce fog.2 mph100%30.19 "Hg6 mi
1:58 AM28 °FIce fog.1 mph100%30.21 "Hg6 mi
12:58 AM28 °FClear.2 mph100%30.23 "HgN/A
11:58 PM
Nov 25
30 °FClear.No wind93%30.24 "HgN/A
10:58 PM32 °FClear.No wind93%30.25 "HgN/A
9:58 PM36 °FPassing clouds.3 mph87%30.25 "HgN/A
8:58 PM37 °FOvercast.6 mph81%30.27 "HgN/A
7:58 PM37 °FOvercast.7 mph81%30.27 "HgN/A
6:58 PM36 °FMostly cloudy.5 mph87%30.27 "HgN/A
5:58 PM37 °FClear.3 mph81%30.27 "HgN/A
4:58 PM39 °FClear.7 mph75%30.26 "HgN/A
3:58 PM41 °FSunny.5 mph76%30.27 "HgN/A
2:58 PM43 °FPartly sunny.5 mph81%30.26 "HgN/A
1:58 PM43 °FOvercast.6 mph81%30.27 "HgN/A
12:58 PM43 °FOvercast.5 mph87%30.29 "HgN/A
11:58 AM43 °FOvercast.6 mph87%30.30 "HgN/A
Weather by CustomWeather, © 2014

See weather overviewHow to use our weather pages